Temp
52 45 40 46 50 51 50 47 45 43 52 49 48 47 52 55 53 52 54 56 58 60 59 59 59 58 58 58 59 59 59 59 59 58 57 56 53 51 49 50 51 51 52 53
46 40 49 54 53 50 48 46 40 44 49 49 46 47 51 54 54 54 54 54 57 54 54 55 55 55 56 56 56 56 57 57 57 57 57 56 52 50 49 49 49 50 50 50
42 48 53 52 49 48 46 45 44 42 46 45 42 41 47 52 55 55 57 57 58 54 52 52 53 53 53 53 53 54 55 55 55 56 57 55 54 51 49 48 47 48 49 49
47 49 50 47 46 49 42 49 46 45 41 36 41 33 43 49 50 53 55 56 57 55 52 52 52 51 51 50 50 52 52 53 54 55 55 54 51 49 48 47 47 47 48 47
40 43 45 44 47 50 45 48 46 44 39 35 35 33 39 45 47 50 50 52 52 50 50 51 51 51 48 48 47 48 49 50 52 53 54 51 49 48 47 46 45 45 45 45
41 48 47 45 48 49 49 45 43 40 36 24 35 36 34 41 46 47 49 50 51 49 46 47 48 49 46 46 46 46 47 48 50 50 51 49 48 46 45 44 43 42 41 41
38 39 44 47 44 46 45 38 23 21 19 25 33 32 38 44 45 47 47 47 46 47 44 44 44 44 44 44 44 46 46 46 47 47 47 47 47 46 45 43 42 41 40 39
28 24 40 44 42 40 41 40 28 24 23 27 32 29 39 43 45 46 47 47 46 45 44 43 44 43 44 45 45 46 45 45 45 44 44 45 45 43 42 42 41 40 39 39
30 30 43 45 46 47 40 34 40 30 21 24 27 35 42 41 41 43 44 44 44 43 43 44 44 43 43 43 44 45 44 43 43 43 43 42 42 42 41 40 40 38 39 41
39 29 40 42 46 45 41 44 30 26 15 17 26 29 34 38 41 43 42 42 43 44 45 44 44 44 43 44 43 43 43 42 42 41 41 41 40 40 40 39 38 38 38 38
43 37 35 40 37 36 38 35 37 34 28 24 22 29 41 42 42 42 43 45 44 44 44 43 44 44 44 43 42 42 41 41 40 41 40 39 39 40 39 38 37 37 37 37
44 38 31 35 41 43 40 38 37 26 27 25 27 29 45 42 43 45 45 46 44 45 44 45 45 44 42 42 41 41 40 40 40 40 39 39 39 38 37 37 36 36 35 36
43 32 27 31 33 37 36 39 40 37 33 30 25 30 44 42 41 44 44 44 45 45 44 45 45 43 42 41 42 41 41 40 40 40 39 38 37 36 36 35 35 35 34 34
47 37 31 27 30 35 33 38 39 38 22 29 30 32 38 42 43 44 45 45 44 46 46 44 43 43 43 43 43 42 42 41 40 39 37 35 35 35 35 35 34 33 33 32
44 28 35 35 36 36 35 37 39 36 37 32 35 37 42 44 45 46 47 46 46 46 47 47 46 45 46 45 45 44 43 42 40 38 36 35 34 35 34 32 32 31 31 31
44 29 34 25 34 35 34 37 39 40 40 38 38 37 46 47 47 46 47 47 47 48 49 48 48 48 47 47 46 46 44 41 39 38 36 35 33 32 31 31 30 30 30 29
39 31 23 19 29 31 26 30 35 38 42 41 35 44 49 47 48 48 46 49 49 50 49 48 50 49 49 49 48 46 45 40 38 35 34 33 32 31 30 30 30 30 28 29
37 31 27 23 20 17 33 36 42 40 42 44 44 44 48 51 51 49 50 51 50 51 50 51 50 49 47 46 45 44 40 37 35 34 33 32 31 31 29 29 29 28 28 27
40 33 26 23 17 28 32 36 36 35 38 45 45 48 50 48 44 47 51 50 53 52 51 52 52 49 46 44 42 40 36 35 34 34 33 32 31 30 29 28 27 27 27 27
40 39 30 26 15 16 31 36 41 43 32 44 46 47 46 44 40 47 50 50 50 50 48 47 44 43 43 43 39 37 35 34 35 33 34 32 30 29 28 27 26 25 26 27
32 32 28 27 14 23 34 36 39 27 34 38 41 44 42 43 47 46 44 43 44 43 43 42 39 43 42 34 34 35 33 34 36 29 28 28 28 27 27 25 24 25 25 26
30 31 30 22 16 22 36 35 35 39 37 36 38 38 40 39 39 40 41 40 41 41 38 37 38 34 29 32 35 34 32 33 27 27 26 25 24 27 26 24 22 23 24 22
29 32 29 32 31 37 36 38 40 37 38 35 35 35 38 37 37 39 41 40 40 39 35 28 29 28 25 23 27 30 28 24 22 23 23 22 21 24 24 23 22 21 22 22
34 30 28 32 32 35 38 37 35 38 36 35 35 34 37 39 38 37 38 38 38 29 29 25 25 24 23 21 23 21 21 22 23 21 20 19 21 21 21 24 25 24 23 22
30 32 26 26 29 29 36 37 39 38 38 37 35 35 36 37 35 35 36 36 33 27 24 21 21 20 20 19 20 20 22 22 21 20 19 19 20 21 21 24 24 25 25 26
33 28 30 30 35 37 40 35 36 36 37 37 38 34 32 32 32 30 29 26 26 25 21 21 19 18 18 16 18 18 18 19 20 19 18 20 21 20 22 23 22 31 30 31
MSLP
1013.43 1014.04 1014.06 1014.30 1014.63 1014.46 1014.63 1015.04 1015.71 1016.50 1016.46 1016.52 1016.63 1016.75 1016.29 1016.34 1016.45 1016.53 1016.68 1016.51 1016.56 1016.78 1017.48 1017.63 1017.95 1018.46 1019.07 1019.54 1019.89 1020.24 1020.70 1021.15 1021.29 1021.53 1021.98 1022.47 1023.31 1023.95 1024.27 1024.33 1024.35 1024.35 1024.20 1024.10
1014.12 1014.18 1014.06 1013.98 1014.29 1014.73 1014.93 1015.24 1016.28 1017.14 1017.05 1017.02 1017.21 1017.08 1016.58 1016.18 1015.88 1015.99 1016.29 1016.49 1016.69 1017.45 1018.09 1018.36 1018.51 1018.71 1019.19 1019.82 1020.25 1020.54 1020.86 1021.29 1021.44 1021.43 1021.67 1022.22 1023.15 1024.00 1024.35 1024.60 1024.75 1024.77 1024.66 1024.54
1014.05 1013.92 1013.86 1014.26 1014.51 1015.04 1015.41 1015.71 1016.49 1017.08 1017.52 1017.74 1017.82 1017.54 1016.51 1015.41 1015.36 1015.48 1015.75 1015.96 1016.57 1017.40 1018.18 1018.69 1018.94 1019.23 1019.59 1020.09 1020.58 1020.93 1021.24 1021.55 1021.62 1021.57 1021.81 1022.57 1023.26 1023.99 1024.60 1024.90 1025.20 1025.26 1025.06 1025.01
1014.56 1014.09 1014.01 1014.42 1014.79 1014.95 1015.82 1015.95 1016.70 1017.61 1018.22 1018.74 1018.48 1017.87 1016.52 1015.48 1015.28 1015.32 1015.67 1016.04 1016.56 1017.20 1018.15 1018.62 1018.97 1019.49 1019.94 1020.56 1020.93 1021.26 1021.57 1021.80 1021.83 1021.67 1022.01 1022.37 1023.00 1023.96 1024.56 1025.01 1025.43 1025.47 1025.37 1025.37
1015.11 1014.88 1014.72 1014.92 1014.96 1015.17 1016.12 1016.39 1017.52 1018.39 1019.27 1019.74 1019.57 1019.17 1016.62 1015.93 1015.78 1015.68 1015.98 1016.52 1017.01 1017.74 1018.07 1018.77 1019.45 1020.01 1020.52 1020.97 1021.41 1021.57 1021.89 1022.14 1022.09 1022.03 1022.21 1022.56 1023.33 1024.00 1024.61 1025.11 1025.49 1025.82 1025.80 1025.73
1016.12 1015.65 1015.54 1015.61 1015.50 1015.71 1016.63 1017.59 1018.97 1019.93 1020.96 1021.36 1019.90 1019.30 1017.34 1016.35 1015.54 1015.91 1016.57 1017.09 1017.52 1018.31 1018.73 1019.24 1019.80 1020.46 1021.10 1021.44 1021.71 1021.93 1022.22 1022.41 1022.45 1022.39 1022.48 1022.82 1023.47 1024.16 1024.74 1025.27 1025.76 1026.09 1026.21 1026.22
1016.94 1016.94 1016.36 1015.99 1016.33 1016.78 1017.13 1018.48 1021.02 1022.20 1022.50 1021.28 1020.36 1019.88 1016.88 1016.16 1015.79 1016.00 1016.88 1017.60 1018.00 1018.60 1019.36 1019.99 1020.48 1021.03 1021.47 1021.71 1022.00 1022.27 1022.52 1022.87 1022.84 1022.75 1022.91 1023.22 1023.66 1024.15 1024.71 1025.22 1025.72 1026.19 1026.44 1026.55
1017.44 1018.07 1016.88 1016.44 1016.66 1016.86 1017.68 1018.27 1019.74 1021.29 1022.37 1021.61 1020.83 1019.34 1016.82 1016.16 1016.31 1016.74 1017.28 1017.80 1018.44 1019.02 1019.64 1020.38 1020.81 1021.17 1021.52 1021.78 1022.13 1022.50 1022.87 1023.17 1023.26 1023.30 1023.46 1023.60 1023.94 1024.44 1024.92 1025.25 1025.70 1026.12 1026.39 1026.51
1016.78 1017.64 1017.30 1016.92 1016.91 1016.99 1017.81 1018.47 1019.25 1020.86 1022.41 1021.92 1020.26 1018.65 1017.15 1017.03 1017.08 1017.26 1017.78 1018.22 1018.63 1019.29 1019.86 1020.28 1020.89 1021.28 1021.64 1021.94 1022.32 1022.66 1023.07 1023.43 1023.60 1023.75 1023.89 1024.14 1024.39 1024.75 1025.18 1025.56 1025.88 1026.32 1026.56 1026.64
1015.63 1017.47 1017.74 1017.45 1017.22 1017.32 1017.30 1018.08 1019.54 1020.77 1022.09 1022.01 1020.16 1018.77 1017.15 1017.19 1017.20 1017.44 1017.91 1018.30 1018.69 1019.22 1019.69 1020.21 1020.58 1021.13 1021.58 1021.90 1022.30 1022.71 1023.08 1023.56 1023.87 1024.08 1024.23 1024.46 1024.80 1025.13 1025.53 1025.91 1026.30 1026.60 1026.78 1026.92
1014.87 1016.34 1018.13 1017.75 1017.29 1017.21 1017.70 1017.98 1018.88 1019.81 1020.55 1020.37 1019.93 1018.15 1016.19 1016.11 1016.45 1016.85 1017.31 1017.89 1018.47 1019.08 1019.43 1019.95 1020.35 1020.90 1021.36 1021.81 1022.25 1022.72 1023.25 1023.70 1024.12 1024.28 1024.51 1024.77 1025.13 1025.46 1025.79 1026.17 1026.61 1026.84 1027.01 1027.15
1014.39 1015.84 1017.38 1017.51 1017.36 1017.22 1017.44 1017.73 1018.14 1019.33 1020.09 1019.98 1019.30 1017.50 1015.87 1015.61 1015.93 1016.36 1016.93 1017.43 1018.11 1018.47 1019.10 1019.65 1020.11 1020.65 1021.29 1021.73 1022.21 1022.67 1023.21 1023.66 1023.97 1024.22 1024.52 1024.87 1025.22 1025.62 1026.03 1026.35 1026.55 1026.66 1026.92 1026.98
1014.01 1015.41 1017.05 1018.04 1018.13 1017.72 1017.67 1017.74 1017.90 1018.54 1019.06 1019.11 1018.84 1017.19 1015.90 1015.70 1016.10 1016.36 1016.68 1017.12 1017.62 1018.24 1018.81 1019.30 1020.04 1020.54 1020.89 1021.48 1021.96 1022.44 1022.89 1023.31 1023.56 1023.94 1024.38 1024.90 1025.33 1025.63 1025.93 1026.20 1026.46 1026.67 1026.99 1027.26
1013.88 1015.04 1015.70 1016.48 1016.66 1016.80 1017.62 1017.38 1017.56 1018.04 1018.68 1018.13 1017.49 1016.60 1015.84 1015.70 1015.80 1015.99 1016.38 1016.76 1017.24 1017.83 1018.28 1018.87 1019.52 1020.04 1020.44 1020.95 1021.48 1021.99 1022.46 1022.78 1023.17 1023.68 1024.27 1024.81 1025.14 1025.48 1025.80 1026.23 1026.64 1026.92 1027.12 1027.47
1014.36 1015.25 1015.83 1016.26 1016.07 1016.33 1016.20 1016.32 1016.72 1016.89 1017.00 1016.91 1016.49 1015.84 1014.96 1014.90 1014.71 1014.97 1015.47 1016.14 1016.65 1017.09 1017.53 1018.04 1018.70 1019.28 1019.72 1020.36 1020.97 1021.52 1021.96 1022.35 1022.90 1023.62 1024.16 1024.53 1024.88 1025.27 1025.74 1026.25 1026.70 1027.08 1027.30 1027.50
1014.72 1015.76 1016.57 1017.61 1017.18 1016.72 1016.52 1016.09 1015.91 1015.92 1016.03 1015.93 1015.47 1014.58 1013.98 1013.65 1013.91 1014.44 1014.72 1015.21 1015.72 1016.16 1016.54 1017.13 1017.77 1018.27 1018.80 1019.42 1020.05 1020.72 1021.31 1021.83 1022.42 1023.10 1023.59 1024.09 1024.64 1025.14 1025.60 1026.08 1026.45 1026.90 1027.12 1027.33
1015.31 1016.25 1017.45 1018.62 1018.19 1017.59 1016.80 1015.23 1015.10 1015.01 1014.71 1014.57 1014.14 1013.19 1013.10 1013.25 1013.13 1013.67 1014.25 1014.30 1014.56 1014.98 1015.46 1016.17 1016.75 1017.28 1017.88 1018.44 1019.10 1019.88 1020.34 1021.15 1021.97 1022.64 1023.36 1023.83 1024.37 1024.93 1025.27 1025.74 1026.21 1026.60 1026.94 1027.30
1015.53 1016.54 1017.71 1019.16 1018.98 1017.99 1015.19 1014.01 1013.60 1013.69 1013.55 1013.38 1012.74 1012.34 1012.03 1011.96 1012.09 1012.49 1012.94 1013.34 1013.85 1014.20 1014.73 1015.37 1016.01 1016.72 1017.37 1017.89 1018.62 1019.30 1020.05 1020.80 1021.61 1022.25 1022.90 1023.51 1024.08 1024.64 1025.22 1025.65 1025.98 1026.51 1026.88 1027.32
1015.52 1016.45 1018.21 1019.18 1019.17 1017.00 1015.04 1014.11 1013.66 1013.25 1012.48 1012.13 1012.01 1011.50 1011.38 1011.78 1012.02 1012.04 1012.11 1012.61 1012.84 1013.21 1013.83 1014.46 1015.03 1015.89 1016.82 1017.55 1018.27 1019.12 1019.91 1020.53 1021.24 1021.69 1022.17 1022.73 1023.26 1023.94 1024.61 1025.09 1025.62 1026.08 1026.65 1027.20
1015.53 1015.85 1017.06 1018.60 1018.76 1017.21 1014.75 1013.15 1012.86 1012.92 1012.34 1010.64 1010.56 1010.45 1011.23 1011.98 1012.37 1011.42 1011.89 1012.20 1012.72 1013.09 1013.61 1014.31 1015.08 1015.77 1016.66 1017.20 1017.83 1018.79 1019.66 1020.33 1020.60 1020.74 1021.19 1021.88 1022.75 1023.48 1024.11 1024.61 1025.31 1025.76 1026.12 1026.48
1015.26 1015.99 1016.70 1017.68 1017.75 1016.12 1014.05 1013.53 1013.48 1013.40 1011.82 1010.63 1010.42 1010.61 1011.41 1011.80 1011.49 1011.75 1012.00 1012.44 1012.81 1013.36 1013.91 1014.45 1015.25 1015.84 1016.18 1016.78 1017.86 1018.98 1019.56 1019.86 1019.36 1020.16 1021.00 1021.67 1022.26 1022.90 1023.50 1024.24 1024.79 1025.16 1025.74 1026.26
1014.63 1015.17 1015.92 1016.86 1016.95 1015.57 1013.60 1014.01 1013.66 1012.18 1011.55 1011.28 1011.00 1011.07 1011.52 1011.85 1012.25 1012.46 1012.75 1013.16 1013.71 1014.12 1014.73 1015.23 1016.22 1016.97 1016.89 1017.42 1018.07 1018.95 1019.56 1018.88 1019.40 1020.16 1020.93 1021.58 1022.16 1022.75 1023.38 1024.00 1024.64 1025.11 1025.66 1026.22
1014.64 1013.80 1014.24 1014.58 1014.00 1013.06 1012.90 1012.62 1012.31 1012.33 1012.29 1011.98 1011.69 1011.86 1012.22 1012.66 1013.07 1013.03 1013.28 1013.82 1014.18 1014.83 1015.62 1016.43 1017.17 1017.80 1017.69 1018.31 1018.57 1019.19 1018.66 1019.19 1019.89 1020.57 1021.09 1021.56 1022.12 1022.60 1022.97 1023.75 1024.44 1024.97 1025.26 1025.52
1014.03 1013.63 1013.96 1014.24 1013.53 1012.87 1012.59 1012.42 1012.39 1012.59 1012.81 1012.68 1012.54 1012.84 1012.91 1013.28 1013.70 1013.94 1014.07 1014.65 1015.16 1015.74 1016.46 1017.13 1017.81 1018.29 1018.79 1018.81 1019.22 1019.63 1019.66 1019.67 1020.31 1020.91 1021.48 1021.81 1022.01 1022.39 1022.73 1023.18 1023.58 1023.95 1024.34 1024.65
1014.90 1014.51 1014.29 1014.25 1014.05 1013.53 1012.81 1012.18 1012.61 1013.09 1012.99 1013.35 1013.70 1013.61 1013.75 1014.09 1014.70 1015.06 1015.36 1015.86 1016.29 1016.90 1017.58 1018.04 1018.68 1019.15 1019.41 1018.96 1019.09 1019.13 1019.36 1019.75 1020.47 1020.97 1021.24 1021.50 1021.81 1022.04 1022.29 1022.35 1022.53 1022.77 1022.86 1023.04
1014.62 1015.13 1014.48 1013.67 1013.21 1012.75 1012.77 1012.53 1012.84 1013.65 1013.94 1014.15 1014.38 1014.81 1015.32 1015.46 1015.91 1016.24 1016.85 1016.93 1017.33 1017.76 1018.30 1018.84 1019.30 1019.48 1019.11 1019.00 1019.10 1019.20 1019.42 1019.85 1020.40 1020.86 1021.13 1021.25 1021.54 1021.85 1022.07 1022.21 1022.48 1022.38 1022.33 1022.64
Wind_Speed
3 4 7 9 8 4 7 5 7 1 2 4 5 4 9 7 5 7 8 8 6 6 7 7 9 9 10 8 8 7 7 4 3 2 4 4 4 4 4 4 6 6 5 6
5 4 7 8 6 4 3 4 4 3 1 2 2 8 9 7 8 10 11 9 8 6 6 6 7 6 6 7 7 7 6 4 2 2 3 4 4 3 4 3 5 6 6 6
6 4 7 6 5 7 3 6 6 7 4 1 1 6 7 8 8 5 7 7 8 11 11 7 8 7 8 8 7 7 6 4 2 6 7 7 6 4 3 3 4 4 6 6
2 4 9 6 5 7 5 4 8 9 5 3 2 7 6 3 5 7 7 8 8 7 6 5 7 8 8 6 7 7 6 4 2 3 5 6 4 4 2 3 3 4 5 6
5 3 7 5 6 6 4 10 8 5 5 4 3 0 9 2 4 6 6 5 7 7 6 10 8 7 7 7 7 6 5 3 2 3 6 5 6 5 4 4 6 5 5 6
1 2 3 1 4 7 7 12 10 7 4 1 8 7 6 4 6 4 4 6 7 7 6 7 7 9 6 6 6 6 6 3 3 5 7 8 10 8 6 5 4 3 3 4
4 4 3 2 10 5 7 7 4 4 3 7 3 3 7 4 1 6 9 7 6 7 8 7 9 7 6 7 6 6 6 4 5 7 7 7 8 7 8 6 4 5 2 2
5 1 3 2 4 8 9 6 7 9 6 4 3 8 7 2 6 6 6 7 5 6 7 7 7 7 7 7 7 6 7 6 6 6 7 6 7 5 4 5 4 4 3 3
6 2 1 4 3 7 6 4 3 7 3 4 5 6 5 2 2 4 6 6 6 6 7 8 7 7 7 7 7 7 7 6 6 6 6 6 6 7 6 6 5 4 4 3
4 7 1 1 2 1 4 7 4 4 4 4 5 4 6 7 9 7 6 7 7 6 7 7 7 7 6 7 6 7 7 7 6 6 6 5 6 6 6 5 6 5 4 4
6 5 4 4 5 7 3 3 4 4 5 6 3 7 6 8 9 10 9 8 8 8 8 7 7 7 7 7 7 7 7 7 6 6 5 6 6 6 6 5 5 5 4 4
4 6 5 4 0 1 2 5 6 6 5 2 3 6 3 4 8 8 8 8 8 7 8 7 7 8 7 7 7 7 7 7 7 6 6 6 6 6 6 6 6 6 6 5
6 2 7 3 6 2 4 4 4 4 3 5 6 6 1 3 3 4 8 8 8 8 8 7 7 7 8 7 7 7 7 7 7 7 7 6 6 6 6 6 6 6 5 5
4 4 6 10 7 8 7 10 7 7 4 4 5 3 5 7 8 7 7 8 8 8 9 8 7 7 7 8 9 8 8 8 8 7 7 7 7 7 6 6 6 6 6 6
4 4 3 2 5 5 7 13 18 17 12 8 8 11 9 10 11 10 9 8 9 9 10 10 10 9 9 9 9 8 8 9 7 7 7 8 7 6 6 6 6 6 6 5
2 2 3 3 3 1 4 14 17 20 14 12 7 8 7 2 4 6 10 11 12 10 10 9 9 10 11 12 12 11 10 10 9 9 8 7 7 7 7 7 7 7 6 6
4 6 3 4 3 3 8 9 11 9 12 13 19 20 11 8 9 9 9 12 12 13 13 12 13 12 11 12 11 13 12 8 9 8 7 8 7 7 8 7 7 7 7 6
9 5 3 3 4 6 5 1 10 16 11 17 13 6 13 15 12 8 9 14 12 11 11 11 10 8 8 7 9 7 8 8 8 8 8 7 8 7 6 7 7 6 5 6
4 5 4 7 4 6 4 6 8 9 14 17 18 19 16 7 2 6 6 7 13 12 11 11 11 7 7 9 8 8 7 8 8 10 10 10 10 9 9 9 8 5 6 5
6 3 4 4 6 9 6 2 4 5 10 10 16 18 11 7 9 8 6 6 8 7 7 9 9 7 9 10 10 9 8 9 12 10 12 9 9 9 9 7 8 4 4 5
6 4 9 5 3 9 8 4 1 6 8 2 3 6 8 8 7 5 4 3 4 5 7 6 7 11 12 5 8 8 7 13 10 6 6 7 7 8 7 7 4 6 5 6
9 7 7 4 3 9 6 4 9 5 3 1 3 2 5 4 7 6 6 6 7 7 4 3 5 4 3 6 8 8 10 7 6 7 7 7 7 6 6 7 4 5 7 7
5 6 7 9 8 6 8 7 7 1 2 1 2 1 5 7 4 7 6 6 4 6 4 2 3 3 2 3 1 7 5 6 6 6 6 6 5 6 7 8 7 5 7 7
5 2 2 4 5 6 8 7 2 4 2 2 3 1 5 6 7 5 5 4 4 3 3 3 4 2 2 2 1 2 3 5 6 5 5 5 7 6 6 6 7 8 8 8
1 1 5 5 5 4 8 10 7 7 6 5 1 1 3 7 4 4 2 1 1 2 1 3 3 2 4 5 6 6 7 7 5 5 5 5 5 8 7 8 9 9 9 11
5 6 4 7 8 5 5 1 9 10 9 8 7 2 2 2 4 2 2 1 1 3 2 2 1 2 4 4 5 4 3 5 7 6 5 5 6 6 6 6 5 15 13 19
Wind_Direction
200 113 173 181 189 148 133 139 118 52 334 130 219 258 255 232 216 211 225 243 244 197 144 127 117 112 105 100 108 116 119 143 146 127 126 111 95 85 67 61 63 54 42 40
76 187 209 181 196 133 104 122 93 57 124 123 197 266 254 236 221 198 201 217 227 117 131 128 124 119 118 128 121 122 128 132 126 144 123 117 131 95 114 91 61 54 50 41
145 189 202 176 168 141 160 163 156 144 176 124 30 283 247 257 245 200 210 189 199 164 165 161 151 146 132 130 136 126 123 125 120 115 105 97 99 93 93 75 64 46 55 50
141 296 156 141 172 136 164 152 118 123 103 218 125 277 291 217 207 201 203 199 190 156 173 170 154 148 144 132 115 109 111 126 113 130 132 143 132 133 124 112 107 74 57 53
217 160 127 125 168 127 175 119 117 104 90 81 265 1 270 159 225 213 201 143 120 108 143 170 159 132 122 122 124 122 112 105 110 127 136 118 103 107 115 114 113 97 63 55
99 268 50 102 51 112 130 80 48 47 73 309 212 169 264 209 210 154 141 135 119 94 87 110 110 119 118 121 123 123 127 129 97 95 122 120 126 131 126 128 119 108 82 53
30 2 332 74 84 34 95 82 34 8 357 226 354 193 248 243 186 152 153 156 137 114 122 123 130 139 143 150 144 140 136 121 97 89 96 113 126 125 130 137 136 132 112 59
140 298 202 145 151 166 171 160 158 195 193 217 353 225 253 178 126 105 124 160 150 137 146 152 161 164 167 164 165 141 137 117 104 101 100 103 107 109 115 120 122 127 131 123
131 17 341 95 83 152 223 178 148 104 29 68 216 279 301 128 154 157 159 155 176 169 161 172 179 179 175 163 157 146 135 126 121 118 108 102 111 114 120 122 116 117 113 110
150 115 222 27 76 61 145 159 70 347 126 248 267 264 235 211 211 204 197 202 196 176 173 180 176 175 168 155 146 138 139 140 141 129 122 119 122 124 124 117 118 114 109 96
131 115 168 108 203 173 150 188 188 131 152 168 159 255 217 221 195 196 204 196 184 183 186 172 175 171 157 149 147 147 144 141 142 138 132 129 133 129 120 115 120 123 116 117
198 123 147 179 351 169 222 197 154 134 226 226 147 272 327 152 179 177 195 186 183 180 177 179 174 158 158 163 158 156 156 155 164 158 151 152 144 133 129 135 146 145 137 133
181 129 113 139 353 355 217 220 200 124 95 205 144 251 194 149 170 189 172 180 180 173 175 175 161 172 171 169 167 168 168 174 174 167 163 155 156 155 161 164 156 144 133 130
107 155 152 178 194 150 191 205 200 179 141 168 214 215 240 233 220 214 197 185 177 176 184 182 173 188 180 177 176 179 182 183 180 170 163 169 177 175 172 159 149 144 147 139
111 165 132 30 136 139 178 187 197 209 204 186 190 210 226 213 217 206 194 179 180 185 189 187 184 190 188 181 183 188 191 189 173 168 175 188 183 174 159 151 154 155 148 145
112 219 119 355 355 99 218 210 206 215 218 237 258 252 225 248 190 187 195 177 190 195 195 186 187 188 189 187 191 191 191 188 174 184 191 173 172 168 167 166 168 161 154 150
176 142 102 236 359 42 290 204 197 210 212 211 226 232 231 257 238 205 207 199 190 193 190 189 196 194 188 190 181 193 192 167 181 176 180 183 175 177 182 171 162 168 165 155
175 117 89 140 43 254 264 209 206 211 214 221 238 210 211 222 226 209 199 195 195 195 185 190 189 186 190 181 188 165 163 169 172 185 187 182 180 181 168 172 174 170 161 167
164 129 122 143 190 299 271 221 180 167 247 227 233 240 230 208 142 260 198 195 199 189 186 191 191 174 161 176 178 173 172 171 182 197 192 190 182 177 178 183 173 165 155 173
211 141 123 144 149 212 246 226 145 116 288 221 208 231 216 137 214 237 191 185 201 191 172 174 174 158 161 199 174 166 181 181 207 194 200 182 172 177 186 172 170 154 163 174
169 173 194 159 209 287 248 190 209 102 240 341 208 204 157 191 220 176 127 75 133 141 167 158 158 176 194 127 133 179 176 209 211 149 147 160 169 173 167 162 161 165 162 156
181 165 178 127 111 258 163 73 174 234 341 0 22 44 164 134 125 122 117 124 133 136 103 97 146 163 177 157 161 186 203 208 154 151 160 163 162 165 164 163 166 160 157 166
241 194 170 176 205 201 194 184 210 189 189 345 86 355 133 132 153 157 146 129 104 112 120 106 156 245 293 2 80 190 235 143 137 144 166 167 155 161 160 166 170 158 175 178
233 102 200 87 238 199 204 218 166 166 148 44 80 142 153 146 170 145 130 144 145 127 151 147 133 216 313 337 267 267 176 138 144 150 165 165 171 172 170 172 179 184 187 185
201 308 168 273 291 348 277 235 158 150 124 124 130 123 129 123 148 157 165 181 102 116 79 110 140 211 234 221 215 197 181 156 169 176 180 183 177 183 185 198 193 199 204 193
145 244 189 227 196 189 229 302 164 160 169 173 158 191 5 74 156 80 98 255 104 96 124 86 130 215 251 213 235 211 189 170 163 187 190 190 186 194 198 199 220 224 215 214